Tracking 23764 objects as of 17-Oct-2021
HD Live streaming from Space Station
objects crossing your sky now

IRIDIUM 33 DEB

Track IRIDIUM 33 DEB now!
10-day predictions


NORAD ID: 35749
Int'l Code: 1997-051SC
Perigee: 697.5 km
Apogee: 725.0 km
Inclination: 86.4 °
Period: 98.9 minutes
Semi major axis: 7082 km
RCS: 0.0016 m2 (small)
Launch date: September 14, 1997
Source: United States (US)
Launch site: TYURATAM MISSILE AND SPACE COMPLEX (TTMTR)

Note: This is SATELLITE DEBRIS
aabbcc
Your satellite tracking list
Your tracking list is empty




NASA's NSSDC Master Catalog

Two Line Element Set (TLE):
1 35749U 97051SC  21289.04373087  .00002247  00000-0  49810-3 0  9994
2 35749  86.3747 302.6578 0019415 126.2313 234.0694 14.56617583637239
Source of the keplerian elements: AFSPC